Regional Weather Roundup
Issued by NWS

Home | Current Version | Previous Version | Text Only | Print | Product List | Glossary Off
Versions: 1 2 3 4 5 6 7 8 9 10 11 12 13 14 15 16 17 18 19 20 21 22 23 24 25 26 27 28 29 30 31 32 33 34 35 36 37 38 39 40 41 42 43 44 45 46 47 48 49 50

461
ASUS43 KLMK 201310
RWRKY
KENTUCKY REGIONAL WEATHER ROUNDUP
NATIONAL WEATHER SERVICE LOUISVILLE KY
800 AM EST MON FEB 20 2017

NOTE "FAIR" INDICATES FEW OR NO CLOUDS BELOW 12,000 FEET
WITH NO SIGNIFICANT WEATHER AND/OR OBSTRUCTIONS TO VISIBILITY.

KYZ001>023-026-027-061>063-070>075-201400-
WESTERN AND SOUTH CENTRAL KENTUCKY

CITY           SKY/WX    TMP DP  RH WIND       PRES   REMARKS
PADUCAH        CLOUDY    48  46  93 E5        30.10R FOG
HENDERSON      CLOUDY    45  41  87 E5        30.15R
OWENSBORO      CLOUDY    42  41  96 CALM      30.17R FOG
HOPKINSVILLE   CLOUDY    49  49 100 E6        30.15R
BOWLING GREEN  FOG       40  39  97 CALM      30.18S VSB<1/4
GLASGOW        PTCLDY   N/A N/A N/A E3        30.19S FOG
$$

KYZ024-025-028>034-038-045-046-053-201400-
NORTH CENTRAL KENTUCKY

CITY           SKY/WX    TMP DP  RH WIND       PRES   REMARKS
LOUISVILLE/SDF FOG       41  39  93 CALM      30.22R VSB 1/16
LOUISVILLE/LOU FOG       39  38  96 CALM      30.22R VSB<1/4
FORT KNOX      FOG       38  38 100 E3        30.18S VSB<1/4
$$

KYZ035>037-039>044-047>052-055>060-089>105-201400-
NORTHEAST KENTUCKY

CITY           SKY/WX    TMP DP  RH WIND       PRES   REMARKS
LEXINGTON      NOT AVBL
COVINGTON      FOG       38  38 100 E3        30.24R VSB 1/8
FRANKFORT      FOG       38  36  92 E5        30.21R VSB<1/4 WCI  34
$$

KYZ054-064>069-076>088-106>120-201400-
SOUTHEAST KENTUCKY

CITY           SKY/WX    TMP DP  RH WIND       PRES   REMARKS
JACKSON        CLOUDY    45  43  93 E5        30.24R
LONDON         CLOUDY    35  33  92 CALM      30.24R
SOMERSET       CLOUDY    34  34 100 CALM      30.25S FOG
MIDDLESBORO    FOG       38  38 100 CALM      30.28R VSB<1/4
MONTICELLO     CLOUDY    36  36 100 NE8       30.24S FOG     WCI  29
$$





USA.gov is the U.S. government's official web portal to all federal, state and local government web resources and services.